Home   Weather   Changsha   Past weeks

Flag for China Past Weather in Changsha, Hunan, China — Yesterday and Last 2 Weeks

Now
91 °F

Passing clouds.


Feels Like: 88 °F
Forecast: 67 / 92 °F
Wind: 6 mph from East

Location: Changsha

Current Time: May 28, 2017 at 2:44:23 pm

Latest Report: May 28, 2017 at 2:00 pm


Visibility: N/A

Pressure: 29.83 "Hg

Humidity: 18%

Dew Point: 43 °F

Location of ChangshaLocation

Past Weather in Changsha — Graph

°F

Changsha Temperature Yesterday

Maximum temperature yesterday: 91 °F (at 4:00 pm)
Minimum temperature yesterday: 64 °F (at 5:00 am)
Average temperature yesterday: 78 °F

High & Low Weather Summary for the Past Weeks

 TemperatureHumidityPressure
High91 °F (May 13, 3:00 pm)94% (May 16, 12:00 am)29.98 "Hg (May 16, 12:00 am)
Low61 °F (May 17, 6:00 am)18% (May 13, 6:00 pm)29.65 "Hg (May 22, 5:00 pm)
Average75 °F67%29.84 "Hg
* Reported May 13 1:00 pm — May 28 1:00 pm, Changsha. Weather by CustomWeather, © 2017

Note: Actual official high and low records may vary slightly from our data, if they occured in-between our weather recording intervals... More about our weather records

Advertising

Changsha Weather History for the Previous 24 Hours

Scroll right to see more
 ConditionsComfort  
Time TempWeatherWind HumidityBarometerVisibility
1:00 pm
Sun, May 28
91 °FSunny.1 mph23%29.83 "Hg10 mi
12:00 pm90 °FSunny.3 mph29%29.86 "Hg10 mi
11:00 am88 °FPassing clouds.3 mph31%29.89 "HgN/A
10:00 am82 °FSunny.1 mph48%29.89 "Hg10 mi
9:00 am79 °FSunny.1 mph54%29.89 "Hg10 mi
8:00 am73 °FSunny.1 mph69%29.89 "Hg10 mi
7:00 am68 °FSunny.1 mph83%29.86 "Hg10 mi
6:00 am66 °FSunny.1 mph83%29.86 "Hg10 mi
5:00 am66 °FClear.1 mph83%29.86 "Hg10 mi
4:00 am66 °FClear.1 mph88%29.83 "Hg10 mi
3:00 am68 °FClear.1 mph83%29.83 "Hg10 mi
2:00 am70 °FClear.1 mph78%29.83 "Hg10 mi
1:00 am72 °FClear.1 mph69%29.83 "Hg10 mi
12:00 am73 °FClear.1 mph69%29.83 "Hg10 mi
11:00 pm
Sat, May 27
75 °FClear.6 mph61%29.83 "Hg10 mi
10:00 pm77 °FClear.6 mph57%29.83 "Hg10 mi
9:00 pm79 °FPassing clouds.3 mph48%29.83 "HgN/A
8:00 pm84 °FClear.1 mph40%29.80 "Hg10 mi
7:00 pm86 °FSunny.1 mph31%29.80 "Hg10 mi
6:00 pm90 °FSunny.1 mph22%29.80 "Hg10 mi
5:00 pm90 °FPassing clouds.3 mph22%29.80 "HgN/A
4:00 pm91 °FPassing clouds.3 mph21%29.83 "HgN/A
3:00 pm90 °FPassing clouds.6 mph27%29.83 "HgN/A
2:00 pm88 °FPassing clouds.3 mph27%29.86 "HgN/A
Weather by CustomWeather, © 2017

See weather overviewHow to use our weather pages